Terminal Aerodrome Forecast
Issued by NWS

Home | Current Version | Previous Version | Text Only | Print | Product List | Glossary On
Versions: 1 2 3 4 5 6 7 8 9 10 11 12 13 14 15 16 17 18 19 20 21 22 23
744
FTAK31 PANC 091738
TAFAAQ
TAF
PAAQ 091738Z 0918/1018 35012KT P6SM SCT060 BKN150
     FM100300 01010KT P6SM FEW060 SCT120
     FM100500 03012G25KT P6SM FEW060 SCT120=

USA.gov is the U.S. government's official web portal to all federal, state and local government web resources and services.